Weather History for Canby, MN

Change the Weather History Date:

Wednesday, February 13, 2013

  Actual Average (KMML) Record (KMML)
Temperature  
Mean Temperature 31 °F -  
Max Temperature 37 °F 28 °F 49 °F (1954)
Min Temperature 25 °F 8 °F -16 °F (1970)
Degree Days  
Heating Degree Days 34    
Moisture  
Dew Point 27 °F    
Average Humidity 81    
Maximum Humidity 94    
Minimum Humidity 71    
Precipitation  
Precipitation 0.00 in - - ()
Sea Level Pressure  
Sea Level Pressure 29.68 in    
Wind  
Wind Speed 9 mph (West)    
Max Wind Speed 22 mph    
Max Gust Speed 28 mph    
Visibility 10 miles    
Events Snow    
Averages and records for this station are not official NWS values.
T = Trace of Precipitation, MM = Missing Value Source: NWS Daily Summary

Daily Weather History Graph

Daily Weather History Graph

Search for Another Location

Airport:

Trip Planner

Search our weather history database for the weather conditions in past years. The results will help you decide how hot, cold, wet, or windy it might be!

Date:

Astronomy

Feb. 13, 2013 Rise Set
Actual Time 7:27 AM CST 5:51 PM CST
Civil Twilight 6:57 AM CST 6:21 PM CST
Nautical Twilight 6:23 AM CST 6:55 PM CST
Astronomical Twilight 5:49 AM CST 7:29 PM CST
Moon 8:46 AM CST (2/13) 10:08 PM CST (2/13)
Length of Visible Light 11h 23m
Length of Day
10h 23m
Waxing Crescent, 14% of the Moon is Illuminated
Feb 13
Waxing Crescent
Feb 17
First Quarter
Feb 25
Full
Mar 4
Last Quarter
Mar 11
New

Hourly Weather History & Observations

Time (CST) Temp. Windchill Dew Point Humidity Pressure Visibility Wind Dir Wind Speed Gust Speed Precip Events Conditions
12:16 AM 27.5 °F 18.6 °F 23.0 °F 83% 29.82 in 10.0 mi WSW 9.2 mph - N/A   Overcast
12:36 AM 28.0 °F 20.0 °F 23.4 °F 83% 29.82 in 10.0 mi WSW 8.1 mph - N/A   Overcast
12:55 AM 27.1 °F 18.9 °F 22.8 °F 84% 29.81 in 10.0 mi WSW 8.1 mph - N/A   Overcast
1:16 AM 27.3 °F 19.1 °F 23.4 °F 85% 29.80 in 10.0 mi WSW 8.1 mph - N/A   Overcast
1:36 AM 28.2 °F 17.7 °F 23.9 °F 84% 29.80 in 10.0 mi West 12.7 mph - N/A   Overcast
1:55 AM 28.2 °F 20.2 °F 23.7 °F 83% 29.80 in 10.0 mi West 8.1 mph - N/A   Overcast
2:16 AM 28.4 °F 22.2 °F 23.7 °F 83% 29.80 in 10.0 mi West 5.8 mph - N/A   Overcast
2:36 AM 27.5 °F 17.4 °F 23.0 °F 83% 29.80 in 10.0 mi West 11.5 mph - N/A   Mostly Cloudy
2:55 AM 27.1 °F - 22.8 °F 84% 29.80 in 10.0 mi Calm Calm - N/A   Overcast
3:16 AM 25.9 °F - 21.9 °F 85% 29.79 in 10.0 mi Calm Calm - N/A   Overcast
3:36 AM 26.8 °F 20.2 °F 22.8 °F 85% 29.78 in 10.0 mi WSW 5.8 mph - N/A   Overcast
3:55 AM 28.6 °F 23.5 °F 23.5 °F 81% 29.77 in 10.0 mi WSW 4.6 mph - N/A   Overcast
4:16 AM 30.0 °F 25.2 °F 24.4 °F 80% 29.77 in 10.0 mi WSW 4.6 mph - N/A   Overcast
4:36 AM 30.6 °F 24.7 °F 24.8 °F 79% 29.76 in 10.0 mi West 5.8 mph - N/A   Overcast
4:56 AM 30.7 °F - 24.8 °F 79% 29.76 in 10.0 mi Calm Calm - N/A   Overcast
5:15 AM 31.1 °F - 25.0 °F 78% 29.75 in 10.0 mi Calm Calm - N/A   Overcast
5:36 AM 30.6 °F 27.1 °F 25.0 °F 80% 29.75 in 10.0 mi WSW 3.5 mph - N/A   Overcast
5:56 AM 31.5 °F 26.8 °F 25.5 °F 79% 29.74 in 10.0 mi SW 4.6 mph - N/A   Overcast
6:16 AM 30.2 °F 23.4 °F 24.6 °F 80% 29.73 in 10.0 mi WSW 6.9 mph - N/A   Mostly Cloudy
6:36 AM 28.6 °F 20.7 °F 23.2 °F 80% 29.72 in 10.0 mi WSW 8.1 mph - N/A   Scattered Clouds
6:56 AM 28.2 °F 18.9 °F 23.0 °F 81% 29.72 in 10.0 mi WSW 10.4 mph - N/A   Clear
7:15 AM 27.5 °F 17.4 °F 22.8 °F 83% 29.71 in 10.0 mi WSW 11.5 mph - N/A   Clear
7:36 AM 27.3 °F 19.1 °F 22.6 °F 83% 29.71 in 10.0 mi SW 8.1 mph - N/A   Clear
7:56 AM 28.2 °F 20.2 °F 22.8 °F 80% 29.70 in 10.0 mi SW 8.1 mph - N/A   Clear
8:16 AM 28.9 °F 18.2 °F 23.0 °F 78% 29.69 in 10.0 mi SW 13.8 mph 19.6 mph N/A   Clear
8:35 AM 28.8 °F 18.4 °F 23.0 °F 79% 29.69 in 10.0 mi SW 12.7 mph - N/A   Clear
8:56 AM 30.6 °F 19.8 °F 23.7 °F 76% 29.69 in 10.0 mi WSW 15.0 mph - N/A   Clear
9:16 AM 30.9 °F 21.7 °F 24.1 °F 76% 29.69 in 10.0 mi WSW 11.5 mph - N/A   Clear
9:36 AM 32.2 °F 22.3 °F 24.8 °F 74% 29.68 in 10.0 mi WSW 13.8 mph 18.4 mph N/A   Clear
9:55 AM 32.9 °F 22.8 °F 25.7 °F 75% 29.68 in 10.0 mi WSW 15.0 mph 19.6 mph N/A   Clear
10:16 AM 33.8 °F 24.3 °F 26.6 °F 75% 29.67 in 10.0 mi WSW 13.8 mph - N/A   Scattered Clouds
10:36 AM 35.1 °F 27.4 °F 27.5 °F 74% 29.68 in 10.0 mi WSW 10.4 mph - N/A   Mostly Cloudy
10:55 AM 35.2 °F 28.8 °F 27.9 °F 74% 29.67 in 10.0 mi WSW 8.1 mph - N/A   Overcast
11:16 AM 35.6 °F 30.7 °F 27.9 °F 73% 29.67 in 10.0 mi West 5.8 mph - N/A   Overcast
11:36 AM 35.6 °F 30.7 °F 28.0 °F 74% 29.66 in 10.0 mi West 5.8 mph - N/A   Overcast
11:55 AM 36.0 °F 33.3 °F 27.9 °F 72% 29.66 in 10.0 mi WNW 3.5 mph - N/A   Overcast
12:16 PM 36.5 °F 28.7 °F 27.9 °F 71% 29.66 in 10.0 mi West 11.5 mph - N/A   Overcast
12:35 PM 35.6 °F 29.2 °F 27.5 °F 72% 29.66 in 10.0 mi West 8.1 mph - N/A   Overcast
12:56 PM 35.1 °F - 27.1 °F 73% 29.64 in 10.0 mi Calm Calm - N/A   Overcast
1:16 PM 35.2 °F - 27.3 °F 73% 29.63 in 10.0 mi Calm Calm - N/A   Overcast
1:36 PM 35.2 °F 31.2 °F 27.7 °F 74% 29.61 in 10.0 mi SW 4.6 mph - N/A   Overcast
1:56 PM 35.6 °F 32.8 °F 28.4 °F 75% 29.60 in 10.0 mi SSW 3.5 mph - N/A   Overcast
2:15 PM 36.3 °F 32.5 °F 28.4 °F 73% 29.59 in 10.0 mi SSW 4.6 mph - N/A   Overcast
2:36 PM 36.3 °F 32.5 °F 28.9 °F 75% 29.59 in 10.0 mi South 4.6 mph - N/A   Overcast
2:56 PM 36.0 °F - 28.9 °F 76% 29.58 in 10.0 mi Calm Calm - N/A   Overcast
3:15 PM 35.6 °F 29.2 °F 29.1 °F 77% 29.59 in 10.0 mi SW 8.1 mph - N/A   Overcast
3:36 PM 35.8 °F 30.9 °F 29.3 °F 77% 29.59 in 10.0 mi SW 5.8 mph - N/A   Overcast
3:55 PM 36.3 °F 29.5 °F 29.7 °F 77% 29.58 in 10.0 mi WSW 9.2 mph - N/A   Overcast
4:16 PM 36.3 °F 27.1 °F 30.6 °F 80% 29.57 in 10.0 mi WSW 15.0 mph - N/A   Overcast
4:36 PM 36.3 °F 27.1 °F 30.9 °F 81% 29.56 in 10.0 mi WSW 15.0 mph 19.6 mph N/A   Overcast
4:56 PM 37.0 °F 28.9 °F 30.9 °F 79% 29.57 in 10.0 mi West 12.7 mph - N/A   Overcast
5:15 PM 37.4 °F 28.5 °F 31.3 °F 79% 29.57 in 10.0 mi West 15.0 mph - N/A   Overcast
5:36 PM 37.8 °F 28.3 °F 31.6 °F 79% 29.57 in 10.0 mi West 17.3 mph 23.0 mph N/A   Overcast
5:56 PM 37.4 °F 28.5 °F 31.6 °F 80% 29.57 in 10.0 mi WNW 15.0 mph 20.7 mph N/A   Overcast
6:15 PM 37.4 °F 30.3 °F 31.8 °F 80% 29.58 in 10.0 mi WNW 10.4 mph - N/A   Overcast
6:36 PM 37.4 °F 28.9 °F 32.0 °F 81% 29.58 in 10.0 mi West 13.8 mph - N/A   Overcast
6:56 PM 37.2 °F 28.7 °F 32.0 °F 81% 29.59 in 10.0 mi WNW 13.8 mph - N/A   Overcast
7:16 PM 37.4 °F 28.9 °F 32.2 °F 81% 29.59 in 10.0 mi West 13.8 mph 20.7 mph N/A   Overcast
7:36 PM 37.4 °F 27.8 °F 32.2 °F 81% 29.59 in 10.0 mi West 17.3 mph - N/A   Overcast
7:56 PM 37.0 °F 26.4 °F 32.0 °F 82% 29.59 in 10.0 mi WNW 20.7 mph - N/A   Overcast
8:16 PM 36.5 °F 25.7 °F 32.0 °F 84% 29.60 in 10.0 mi WNW 20.7 mph 24.2 mph N/A   Overcast
8:36 PM 36.1 °F 25.9 °F 32.0 °F 85% 29.61 in 10.0 mi NW 18.4 mph 27.6 mph N/A   Overcast
8:56 PM 32.9 °F 20.7 °F 31.3 °F 94% 29.62 in 10.0 mi NW 21.9 mph 26.5 mph N/A   Overcast
9:16 PM 32.0 °F 19.8 °F 30.2 °F 93% 29.64 in 10.0 mi NW 20.7 mph 27.6 mph N/A   Overcast
9:36 PM 32.0 °F 20.8 °F 30.0 °F 92% 29.65 in 10.0 mi NNW 17.3 mph 24.2 mph N/A   Overcast
9:56 PM 31.8 °F 21.4 °F 29.7 °F 92% 29.66 in 10.0 mi NW 15.0 mph 24.2 mph N/A Snow Light Snow
10:16 PM 31.1 °F 20.1 °F 29.1 °F 92% 29.67 in 7.0 mi NW 16.1 mph 19.6 mph N/A Snow Light Snow
10:35 PM 30.7 °F 19.6 °F 28.9 °F 93% 29.68 in 10.0 mi NW 16.1 mph 20.7 mph N/A   Overcast
10:56 PM 30.6 °F 19.4 °F 28.4 °F 92% 29.68 in 10.0 mi NW 16.1 mph 20.7 mph N/A Snow Light Snow
11:16 PM 30.2 °F 18.5 °F 28.4 °F 93% 29.70 in 4.0 mi NW 17.3 mph 23.0 mph N/A Snow Light Snow
11:36 PM 29.3 °F 18.2 °F 27.9 °F 94% 29.71 in 10.0 mi NW 15.0 mph - N/A   Overcast
11:55 PM 29.3 °F 18.6 °F 27.5 °F 93% 29.72 in 10.0 mi NW 13.8 mph 24.2 mph N/A   Overcast